| time (UTC) | temp F | wind direction | speed MPH | gust MPH | rain 1hr in | rain 24hr in | rain mn in | humidity % | barometer mb |
| 20260505032508 | 40 | 306 | 8.0 | 14.0 | 0.00 | 0.01 | 0.01 | 1007.7 | |
| 20260505032009 | 40 | 290 | 3.0 | 13.0 | 0.00 | 0.01 | 0.01 | 53 | 1007.7 |
| 20260505031524 | 40 | 306 | 7.0 | 13.0 | 0.00 | 0.01 | 0.01 | 53 | 1007.7 |
| 20260505031008 | 41 | 305 | 9.0 | 14.0 | 0.00 | 0.01 | 0.01 | 52 | 1007.7 |
| 20260505030512 | 0 | 278 | 8.0 | 14.0 | 0.00 | 0.01 | 0.01 | 52 | 1007.6 |
| 20260505030028 | 0 | 275 | 9.0 | 13.0 | 0.00 | 0.01 | 0.01 | 52 | 1007.6 |
| 20260505025503 | 41 | 263 | 7.0 | 16.0 | 0.00 | 0.01 | 0.01 | 51 | 1007.6 |
| 20260505025004 | 41 | 318 | 9.0 | 14.0 | 0.00 | 0.01 | 0.01 | 51 | 1007.6 |
| 20260505024534 | 41 | 291 | 7.0 | 14.0 | 0.00 | 0.01 | 0.01 | 51 | 1007.6 |
| 20260505024007 | 41 | 268 | 6.0 | 13.0 | 0.00 | 0.01 | 0.01 | 51 | 1007.6 |
| 20260505023507 | 41 | 261 | 5.0 | 13.0 | 0.00 | 0.01 | 0.01 | 51 | 1007.4 |
| 20260505023021 | 41 | 317 | 7.0 | 14.0 | 0.00 | 0.01 | 0.01 | 50 | 1007.3 |
| 20260505022510 | 41 | 293 | 6.0 | 14.0 | 0.00 | 0.01 | 0.01 | 49 | 1007.3 |
| 20260505022011 | 41 | 285 | 6.0 | 11.0 | 0.00 | 0.01 | 0.01 | 1007.3 | |
| 20260505021522 | 41 | 298 | 5.0 | 14.0 | 0.00 | 0.01 | 0.01 | 48 | 1007.2 |
| 20260505021007 | 41 | 306 | 6.0 | 16.0 | 0.00 | 0.01 | 0.01 | 48 | 1007.2 |
| 20260505020507 | 42 | 310 | 8.0 | 18.0 | 0.00 | 0.01 | 0.01 | 48 | 1007.1 |
| 20260505020027 | 42 | 261 | 12.0 | 17.0 | 0.00 | 0.01 | 0.01 | 47 | 1007.1 |
| 20260505015511 | 42 | 273 | 11.0 | 16.0 | 0.00 | 0.01 | 0.01 | 47 | 1006.9 |
| 20260505015010 | 42 | 313 | 8.0 | 15.0 | 0.00 | 0.01 | 0.01 | 47 | 1006.9 |
| 20260505014512 | 42 | 296 | 5.0 | 16.0 | 0.00 | 0.01 | 0.01 | 47 | 1006.9 |
| 20260505014008 | 42 | 319 | 7.0 | 16.0 | 0.00 | 0.01 | 0.01 | 46 | 1006.7 |
| 20260505013508 | 42 | 226 | 8.0 | 15.0 | 0.00 | 0.01 | 0.01 | 46 | 1006.6 |
| 20260505013022 | 42 | 256 | 8.0 | 18.0 | 0.00 | 0.01 | 0.01 | 45 | 1006.5 |
| 20260505012507 | 42 | 302 | 10.0 | 18.0 | 0.00 | 0.01 | 0.01 | 45 | 1006.5 |
| 20260505012009 | 43 | 307 | 7.0 | 17.0 | 0.00 | 0.01 | 0.01 | 46 | 1006.5 |
| 20260505011522 | 43 | 317 | 10.0 | 19.0 | 0.00 | 0.01 | 0.01 | 47 | 1006.5 |
| 20260505011009 | 43 | 283 | 7.0 | 19.0 | 0.00 | 0.01 | 0.01 | 47 | 1006.5 |
| 20260505010508 | 43 | 275 | 7.0 | 18.0 | 0.00 | 0.01 | 0.01 | 47 | 1006.5 |
| 20260505010024 | 43 | 313 | 12.0 | 18.0 | 0.00 | 0.01 | 0.01 | 46 | 1006.4 |
| 20260505005507 | 43 | 263 | 6.0 | 16.0 | 0.00 | 0.01 | 0.01 | 47 | 1006.4 |
| 20260505005008 | 43 | 278 | 9.0 | 18.0 | 0.00 | 0.01 | 0.01 | 47 | 1006.2 |
| 20260505004530 | 43 | 248 | 8.0 | 18.0 | 0.00 | 0.01 | 0.01 | 47 | 1006.2 |
| 20260505004009 | 43 | 236 | 10.0 | 18.0 | 0.00 | 0.01 | 0.01 | 47 | 1006.1 |
| 20260505003516 | 43 | 270 | 10.0 | 18.0 | 0.00 | 0.01 | 0.01 | 46 | 1006.2 |
| 20260505003016 | 43 | 295 | 9.0 | 21.0 | 0.00 | 0.01 | 0.01 | 46 | 1006.2 |
| 20260505002508 | 43 | 272 | 11.0 | 21.0 | 0.00 | 0.01 | 0.01 | 46 | 1006.2 |
| 20260505002007 | 43 | 281 | 10.0 | 23.0 | 0.00 | 0.01 | 0.01 | 45 | 1006.1 |
| 20260505001521 | 43 | 290 | 9.0 | 23.0 | 0.00 | 0.01 | 0.01 | 45 | 1006.1 |
| 20260505001012 | 43 | 289 | 9.0 | 16.0 | 0.00 | 0.01 | 0.01 | 45 | 1006.0 |
| 20260505000508 | 43 | 321 | 7.0 | 20.0 | 0.00 | 0.01 | 0.01 | 45 | 1005.9 |
| 20260505000030 | 44 | 299 | 10.0 | 19.0 | 0.00 | 0.01 | 0.01 | 45 | 1005.9 |
| 20260504235510 | 44 | 299 | 9.0 | 23.0 | 0.00 | 0.01 | 0.01 | 44 | 1005.9 |
| 20260504235012 | 44 | 275 | 11.0 | 23.0 | 0.00 | 0.01 | 0.01 | 44 | 1005.9 |
| 20260504234526 | 44 | 295 | 12.0 | 23.0 | 0.00 | 0.01 | 0.01 | 44 | 1005.8 |
| 20260504234008 | 44 | 306 | 11.0 | 21.0 | 0.00 | 0.01 | 0.01 | 43 | 1005.8 |
| 20260504233509 | 44 | 298 | 10.0 | 18.0 | 0.00 | 0.01 | 0.01 | 43 | 1005.8 |
| 20260504233029 | 44 | 273 | 11.0 | 18.0 | 0.00 | 0.01 | 0.01 | 43 | 1005.7 |
| 20260504232511 | 44 | 253 | 9.0 | 18.0 | 0.00 | 0.01 | 0.01 | 43 | 1005.6 |
| 20260504232007 | 44 | 277 | 10.0 | 17.0 | 0.00 | 0.01 | 0.01 | 44 | 1005.7 |
| 20260504231525 | 44 | 304 | 8.0 | 21.0 | 0.00 | 0.01 | 0.01 | 44 | 1005.6 |
| 20260504231010 | 44 | 265 | 13.0 | 24.0 | 0.00 | 0.01 | 0.01 | 44 | 1005.6 |
| 20260504230508 | 44 | 279 | 9.0 | 19.0 | 0.00 | 0.01 | 0.01 | 45 | 1005.5 |
| 20260504230023 | 44 | 285 | 10.0 | 18.0 | 0.00 | 0.01 | 0.01 | 45 | 1005.5 |
| 20260504225511 | 44 | 323 | 8.0 | 19.0 | 0.00 | 0.01 | 0.01 | 45 | 1005.5 |
| 20260504225006 | 44 | 298 | 10.0 | 19.0 | 0.00 | 0.01 | 0.01 | 46 | 1005.5 |
| 20260504224528 | 44 | 272 | 6.0 | 21.0 | 0.00 | 0.01 | 0.01 | 46 | 1005.5 |
| 20260504224011 | 44 | 269 | 11.0 | 19.0 | 0.00 | 0.01 | 0.01 | 45 | 1005.3 |
| 20260504223507 | 44 | 259 | 11.0 | 17.0 | 0.00 | 0.01 | 0.01 | 46 | 1005.2 |
| 20260504223028 | 44 | 340 | 7.0 | 18.0 | 0.00 | 0.01 | 0.01 | 46 | 1005.1 |
| 20260504222507 | 44 | 275 | 9.0 | 18.0 | 0.00 | 0.01 | 0.01 | 47 | 1005.1 |
| 20260504222010 | 44 | 252 | 10.0 | 17.0 | 0.00 | 0.01 | 0.01 | 48 | 1005.3 |
| 20260504221528 | 43 | 302 | 7.0 | 19.0 | 0.00 | 0.01 | 0.01 | 48 | 1005.3 |
| 20260504221007 | 43 | 279 | 11.0 | 19.0 | 0.00 | 0.01 | 0.01 | 47 | 1005.3 |
| 20260504220508 | 43 | 306 | 6.0 | 23.0 | 0.00 | 0.01 | 0.01 | 47 | 1005.2 |
| 20260504220021 | 43 | 275 | 14.0 | 23.0 | 0.00 | 0.01 | 0.01 | 47 | 1005.2 |
| 20260504215507 | 43 | 305 | 13.0 | 23.0 | 0.00 | 0.01 | 0.01 | 47 | 1005.1 |
| 20260504215004 | 43 | 294 | 10.0 | 27.0 | 0.00 | 0.01 | 0.01 | 47 | 1005.1 |
| 20260504214506 | 43 | 250 | 15.0 | 27.0 | 0.00 | 0.01 | 0.01 | 47 | 1005.1 |
| 20260504214004 | 43 | 309 | 13.0 | 22.0 | 0.00 | 0.01 | 0.01 | 49 | 1005.2 |
| 20260504213505 | 43 | 281 | 7.0 | 21.0 | 0.00 | 0.01 | 0.01 | 52 | 1005.2 |
| 20260504213010 | 42 | 262 | 7.0 | 22.0 | 0.00 | 0.01 | 0.01 | 52 | 1005.2 |
| 20260504212506 | 42 | 309 | 10.0 | 23.0 | 0.00 | 0.01 | 0.01 | 52 | 1005.2 |
| 20260504212004 | 42 | 286 | 12.0 | 23.0 | 0.00 | 0.01 | 0.01 | 53 | 1005.2 |
| 20260504211513 | 0 | 314 | 9.0 | 20.0 | 0.00 | 0.01 | 0.01 | 55 | 1005.2 |
| 20260504211007 | 42 | 341 | 12.0 | 20.0 | 0.00 | 0.01 | 0.01 | 55 | 1005.2 |
| 20260504210507 | 42 | 331 | 7.0 | 18.0 | 0.00 | 0.01 | 0.01 | 56 | 1005.0 |
| 20260504210017 | 42 | 337 | 8.0 | 22.0 | 0.00 | 0.01 | 0.01 | 57 | 1005.0 |
| 20260504205507 | 42 | 270 | 10.0 | 22.0 | 0.00 | 0.01 | 0.01 | 57 | 1005.0 |
| 20260504205010 | 42 | 304 | 10.0 | 23.0 | 0.00 | 0.01 | 0.01 | 57 | 1005.0 |
| 20260504204524 | 42 | 286 | 11.0 | 23.0 | 0.00 | 0.01 | 0.01 | 57 | 1004.9 |
| 20260504204003 | 42 | 286 | 11.0 | 24.0 | 0.00 | 0.01 | 0.01 | 57 | 1004.9 |
| 20260504203503 | 42 | 303 | 9.0 | 24.0 | 0.00 | 0.01 | 0.01 | 57 | 1004.8 |
| 20260504203018 | 42 | 311 | 10.0 | 21.0 | 0.00 | 0.01 | 0.01 | 57 | 1004.7 |
| 20260504202508 | 42 | 286 | 13.0 | 26.0 | 0.00 | 0.01 | 0.01 | 57 | 1004.7 |
| 20260504202006 | 42 | 265 | 13.0 | 26.0 | 0.00 | 0.01 | 0.01 | 57 | 1004.7 |
| 20260504201511 | 42 | 241 | 9.0 | 25.0 | 0.00 | 0.01 | 0.01 | 58 | 1004.6 |
| 20260504201006 | 42 | 271 | 10.0 | 22.0 | 0.00 | 0.01 | 0.01 | 58 | 1004.5 |
| 20260504200511 | 42 | 280 | 9.0 | 19.0 | 0.00 | 0.01 | 0.01 | 58 | 1004.5 |
| 20260504200016 | 43 | 286 | 11.0 | 23.0 | 0.00 | 0.01 | 0.01 | 58 | 1004.5 |
| 20260504195504 | 43 | 270 | 9.0 | 23.0 | 0.00 | 0.01 | 0.01 | 58 | 1004.4 |
| 20260504195007 | 43 | 308 | 10.0 | 21.0 | 0.00 | 0.01 | 0.01 | 58 | 1004.3 |
| 20260504194531 | 43 | 283 | 10.0 | 21.0 | 0.00 | 0.01 | 0.01 | 58 | 1004.3 |
| 20260504194010 | 43 | 291 | 10.0 | 21.0 | 0.00 | 0.01 | 0.01 | 57 | 1004.1 |
| 20260504193510 | 43 | 241 | 10.0 | 20.0 | 0.00 | 0.01 | 0.01 | 58 | 1004.1 |
| 20260504193014 | 43 | 283 | 10.0 | 22.0 | 0.00 | 0.01 | 0.01 | 57 | 1003.9 |
| 20260504192503 | 43 | 240 | 12.0 | 22.0 | 0.00 | 0.01 | 0.01 | 57 | 1003.9 |
| 20260504192004 | 43 | 304 | 9.0 | 21.0 | 0.00 | 0.01 | 0.01 | 57 | 1003.8 |
| 20260504191507 | 44 | 261 | 9.0 | 21.0 | 0.00 | 0.01 | 0.01 | 58 | 1003.7 |
| 20260504191006 | 44 | 248 | 7.0 | 22.0 | 0.00 | 0.01 | 0.01 | 58 | 1003.7 |
| 20260504190505 | 43 | 319 | 8.0 | 26.0 | 0.00 | 0.01 | 0.01 | 58 | 1003.6 |
| 20260504190012 | 44 | 307 | 13.0 | 26.0 | 0.00 | 0.01 | 0.01 | 57 | 1003.5 |
| 20260504185509 | 44 | 315 | 16.0 | 26.0 | 0.00 | 0.01 | 0.01 | 58 | 1003.5 |
| 20260504185005 | 44 | 271 | 13.0 | 24.0 | 0.00 | 0.01 | 0.01 | 58 | 1003.3 |
| 20260504184518 | 44 | 346 | 13.0 | 22.0 | 0.00 | 0.01 | 0.01 | 57 | 1003.3 |
| 20260504184008 | 44 | 311 | 10.0 | 25.0 | 0.00 | 0.01 | 0.01 | 57 | 1003.3 |
| 20260504183509 | 44 | 252 | 12.0 | 26.0 | 0.00 | 0.01 | 0.01 | 56 | 1003.1 |
| 20260504183022 | 44 | 269 | 11.0 | 26.0 | 0.00 | 0.01 | 0.01 | 58 | 1003.1 |
| 20260504182509 | 44 | 322 | 15.0 | 26.0 | 0.00 | 0.01 | 0.01 | 57 | 1002.9 |
| 20260504182011 | 44 | 273 | 14.0 | 25.0 | 0.00 | 0.01 | 0.01 | 56 | 1002.9 |
| 20260504181508 | 45 | 281 | 13.0 | 24.0 | 0.00 | 0.01 | 0.01 | 56 | 1002.7 |
| 20260504181004 | 45 | 294 | 14.0 | 20.0 | 0.00 | 0.01 | 0.01 | 54 | 1002.6 |
| 20260504180504 | 46 | 300 | 12.0 | 19.0 | 0.00 | 0.01 | 0.01 | 54 | 1002.5 |
| 20260504180015 | 46 | 243 | 10.0 | 21.0 | 0.00 | 0.01 | 0.01 | 54 | 1002.3 |
| 20260504175507 | 46 | 319 | 11.0 | 21.0 | 0.00 | 0.01 | 0.01 | 54 | 1002.4 |
| 20260504175005 | 47 | 344 | 10.0 | 19.0 | 0.00 | 0.01 | 0.01 | 54 | 1002.4 |
| 20260504174513 | 46 | 313 | 10.0 | 25.0 | 0.00 | 0.01 | 0.01 | 56 | 1002.3 |
| 20260504174007 | 45 | 290 | 12.0 | 25.0 | 0.00 | 0.01 | 0.01 | 57 | 1002.4 |
| 20260504173506 | 45 | 283 | 10.0 | 25.0 | 0.00 | 0.01 | 0.01 | 57 | 1002.3 |
| 20260504173021 | 44 | 300 | 15.0 | 24.0 | 0.00 | 0.01 | 0.01 | 57 | 1002.3 |
| 20260504172510 | 44 | 294 | 15.0 | 24.0 | 0.00 | 0.01 | 0.01 | 58 | 1002.3 |
| 20260504172009 | 44 | 255 | 9.0 | 25.0 | 0.00 | 0.01 | 0.01 | 59 | 1002.2 |
| 20260504171526 | 44 | 309 | 11.0 | 25.0 | 0.00 | 0.01 | 0.01 | 59 | 1002.1 |
| 20260504171014 | 44 | 317 | 11.0 | 25.0 | 0.00 | 0.01 | 0.01 | 58 | 1002.0 |
| 20260504170504 | 44 | 257 | 12.0 | 20.0 | 0.00 | 0.01 | 0.01 | 59 | 1002.1 |
| 20260504151009 | 43 | 270 | 12.0 | 24.0 | 0.00 | 0.01 | 0.01 | 69 | 1000.5 |
| 20260504150509 | 43 | 310 | 12.0 | 24.0 | 0.00 | 0.01 | 0.01 | 69 | 1000.2 |
| 20260504141010 | 44 | 305 | 12.0 | 23.0 | 0.00 | 0.01 | 0.01 | 67 | 999.4 |
| 20260504140507 | 44 | 360 | 12.0 | 20.0 | 0.00 | 0.01 | 0.01 | 67 | 999.3 |
| 20260504130508 | 46 | 288 | 12.0 | 19.0 | 0.00 | 0.01 | 0.01 | 72 | 998.2 |
| 20260504110505 | 47 | 265 | 7.0 | 13.0 | 0.01 | 0.01 | 0.01 | 79 | 996.6 |
| 20260504100509 | 51 | 308 | 8.0 | 17.0 | 0.00 | 0.00 | 0.00 | 64 | 996.7 |
| 20260504082003 | 61 | 234 | 4.0 | 10.0 | 0.00 | 0.00 | 0.00 | 37 | 994.5 |
| 20260504081505 | 61 | 242 | 4.0 | 10.0 | 0.00 | 0.00 | 0.00 | 36 | 994.5 |
| 20260504081003 | 61 | 234 | 5.0 | 10.0 | 0.00 | 0.00 | 0.00 | 36 | 994.5 |
| 20260504080504 | 61 | 244 | 5.0 | 15.0 | 0.00 | 0.00 | 0.00 | 36 | 994.4 |
| 20260504050511 | 59 | 223 | 4.0 | 18.0 | 0.00 | 0.00 | 0.00 | 37 | 998.4 |
| 20260504045507 | 59 | 200 | 7.0 | 16.0 | 0.00 | 0.00 | 0.00 | 37 | 998.7 |
| 20260504045003 | 59 | 227 | 7.0 | 16.0 | 0.00 | 0.00 | 0.00 | 37 | 998.7 |
| 20260504044508 | 58 | 200 | 6.0 | 16.0 | 0.00 | 0.00 | 0.00 | 37 | 998.9 |
| 20260504044005 | 58 | 195 | 4.0 | 16.0 | 0.00 | 0.00 | 0.00 | 37 | 999.0 |
| 20260504043504 | 58 | 198 | 5.0 | 16.0 | 0.00 | 0.00 | 0.00 | 37 | 999.0 |
| 20260504043014 | 58 | 206 | 6.0 | 16.0 | 0.00 | 0.00 | 0.00 | 37 | 999.1 |
| 20260504042508 | 58 | 213 | 6.0 | 15.0 | 0.00 | 0.00 | 0.00 | 37 | 999.2 |
| 20260504042008 | 58 | 219 | 4.0 | 15.0 | 0.00 | 0.00 | 0.00 | 36 | 999.3 |
| 20260504041519 | 58 | 213 | 6.0 | 16.0 | 0.00 | 0.00 | 0.00 | 36 | 999.4 |
| 20260504041008 | 58 | 178 | 6.0 | 15.0 | 0.00 | 0.00 | 0.00 | 36 | 999.5 |
| 20260504040508 | 58 | 203 | 5.0 | 17.0 | 0.00 | 0.00 | 0.00 | 36 | 999.7 |
| 20260504040029 | 58 | 221 | 8.0 | 17.0 | 0.00 | 0.00 | 0.00 | 36 | 999.7 |
| 20260504035507 | 59 | 179 | 5.0 | 15.0 | 0.00 | 0.00 | 0.00 | 36 | 1000.0 |
| 20260504035011 | 59 | 231 | 4.0 | 15.0 | 0.00 | 0.00 | 0.00 | 36 | 1000.2 |
| 20260504034537 | 58 | 198 | 7.0 | 15.0 | 0.00 | 0.00 | 0.00 | 36 | 1000.3 |
| 20260504034004 | 58 | 192 | 6.0 | 14.0 | 0.00 | 0.00 | 0.00 | 36 | 1000.4 |
| 20260504033503 | 58 | 209 | 6.0 | 11.0 | 0.00 | 0.00 | 0.00 | 36 | 1000.6 |